Wind_Speed
3 2 2 2 2 1 1 2 2 2 3 3 4 5 6 6 6 4 1 5 8 10 9 8 6 3 5 10 11 9 7 7 8 9 10 11 12 11 8 6 8 6 5
3 3 2 2 2 2 2 2 2 2 3 4 5 7 7 7 4 1 1 2 3 4 4 4 4 5 5 6 10 8 7 6 7 9 10 12 12 12 9 6 9 3 4
3 3 3 3 2 2 2 2 2 2 4 5 5 4 4 4 2 1 1 1 2 3 3 4 6 7 8 9 10 11 10 9 8 9 11 12 10 9 8 6 6 7 8
4 4 3 3 2 1 2 2 2 3 3 4 4 4 4 3 2 3 2 3 4 5 5 6 7 8 9 10 11 12 13 11 10 10 11 12 11 9 9 10 10 10 11
4 3 3 3 2 1 1 2 3 3 3 4 4 4 5 5 5 5 5 5 6 6 7 8 8 10 10 10 11 12 13 14 13 12 11 11 12 12 11 12 13 14 14
4 3 2 2 1 1 1 2 2 3 4 4 6 6 6 7 7 6 6 6 4 6 6 8 9 10 11 11 11 13 14 14 15 15 14 13 13 13 14 14 14 14 13
3 3 2 1 1 1 1 2 2 3 4 5 5 6 8 8 7 7 7 7 7 7 8 8 10 11 10 11 13 13 13 15 15 16 17 16 15 14 14 14 15 15 14
4 3 2 2 2 1 2 2 3 4 4 5 6 7 3 5 3 7 10 10 10 10 10 12 13 12 13 14 14 15 16 16 17 17 17 18 18 17 16 14 13 15 15
3 3 3 3 3 2 3 3 3 4 5 6 6 4 4 3 13 2 6 8 8 10 14 14 15 16 17 19 18 18 18 19 18 19 19 19 19 19 18 16 15 15 17
3 4 4 4 4 4 4 5 5 5 6 6 6 6 6 8 5 7 5 9 16 10 15 18 20 21 21 21 21 20 20 20 21 21 21 21 20 20 18 18 17 17 19
4 4 5 5 5 5 5 6 6 7 7 8 8 9 9 10 11 11 21 18 21 19 20 22 22 22 21 21 21 21 21 21 21 22 22 21 21 20 20 20 19 19 21
5 5 4 4 4 4 5 6 7 7 8 8 9 10 11 12 14 14 22 28 30 29 24 22 21 19 17 18 18 20 20 21 21 21 22 22 22 22 22 22 22 21 22
5 5 4 4 4 4 5 5 6 7 8 9 10 11 12 13 15 17 21 24 29 34 34 29 25 21 18 14 16 18 20 22 24 25 25 23 23 23 24 24 24 24 23
5 5 4 4 4 5 6 6 6 7 8 9 10 12 13 13 15 17 20 23 30 33 34 35 34 30 27 27 27 26 27 28 29 30 30 30 28 27 27 27 26 26 27
5 4 3 4 5 5 5 5 6 8 9 10 12 14 16 16 18 19 21 23 25 30 34 38 38 37 37 36 33 31 30 30 31 31 31 32 35 35 35 33 33 33 32
4 4 4 4 3 3 5 6 7 9 11 13 15 17 18 19 21 22 24 24 26 29 31 34 36 38 38 39 36 34 32 32 31 32 33 33 33 35 37 38 38 37 35
4 4 3 2 2 3 5 7 10 12 14 17 18 20 21 23 24 25 26 26 27 28 35 39 36 34 35 36 37 35 35 34 34 32 32 33 34 35 36 37 37 36 36
4 3 2 2 2 5 8 10 12 14 17 20 22 24 24 26 27 27 28 28 29 28 33 39 38 37 35 32 33 34 34 35 33 29 28 30 32 32 33 34 36 39 39
3 3 2 2 5 7 10 13 16 18 20 23 25 26 27 28 29 28 28 29 29 30 31 36 41 39 38 35 36 35 34 34 33 33 32 30 28 27 28 30 31 32 33
4 3 3 5 8 11 15 17 20 22 23 24 25 25 26 27 28 29 30 31 32 33 34 36 39 41 40 40 36 35 37 34 36 34 33 32 33 32 32 30 29 29 30
4 3 5 9 12 15 18 21 22 23 25 25 25 26 27 29 29 30 32 33 34 34 35 36 39 40 38 30 27 27 29 32 29 28 30 31 32 33 33 30 31 31 31
4 6 9 12 15 18 20 21 23 24 25 27 28 29 30 31 31 32 33 33 33 33 32 31 28 29 34 33 31 32 30 33 38 34 30 35 36 38 39 39 39 36 32
6 9 12 15 17 19 21 22 23 24 26 28 30 31 33 33 33 34 34 34 32 28 26 30 36 38 35 33 31 34 36 38 40 37 33 39 41 36 36 35 36 37 36
9 12 15 17 19 20 22 23 25 27 29 30 32 33 35 35 34 34 33 32 31 32 33 34 34 37 38 39 36 36 38 37 39 41 36 35 38 37 36 35 32 33 35
12 15 17 18 20 20 23 26 29 31 32 33 33 33 34 34 30 25 28 33 35 36 36 35 32 32 31 31 31 32 33 30 36 45 39 29 33 30 36 42 39 35 32
14 15 16 18 20 23 24 27 29 32 34 35 35 35 32 26 28 29 30 33 38 39 37 37 34 34 32 32 33 27 28 30 33 38 22 23 37 34 35 38 32 37 40
Wind_Direction
193 195 194 184 185 219 247 283 293 293 296 292 291 291 293 301 322 317 283 211 216 239 265 291 315 293 273 278 289 300 298 289 285 275 280 281 276 288 268 281 279 286 316
195 204 202 211 215 231 251 276 290 298 300 304 300 293 296 303 319 338 154 191 223 245 267 291 304 303 287 287 302 315 313 302 288 274 277 275 283 287 265 272 293 313 269
190 202 213 222 224 249 255 280 289 299 309 312 307 303 303 315 339 151 150 212 243 272 283 289 295 300 296 290 291 303 309 310 303 292 286 286 288 286 273 270 268 266 252
200 208 205 218 205 246 285 298 297 300 313 322 321 309 285 272 271 255 257 265 273 277 279 288 293 300 301 297 298 305 312 314 311 304 300 301 301 293 275 265 262 268 261
204 205 203 205 193 236 273 291 305 305 306 309 305 297 280 266 265 266 269 269 274 278 285 294 296 299 300 298 298 301 305 307 307 303 299 296 297 298 292 285 282 281 282
195 192 194 204 194 213 278 306 307 308 310 314 310 291 278 272 268 269 272 280 291 292 297 303 305 306 300 297 294 297 297 301 304 302 299 296 294 294 293 293 291 288 287
190 190 202 208 218 248 286 301 309 313 312 321 317 302 283 271 265 269 274 267 294 289 302 301 308 310 310 310 308 305 300 301 299 297 296 296 293 290 287 287 289 290 291
192 196 213 238 254 264 277 286 310 315 315 322 330 322 291 280 256 290 279 280 282 291 302 303 309 307 306 310 311 310 307 307 305 301 294 292 292 290 286 283 278 281 287
194 223 247 256 266 270 275 291 303 306 315 323 335 343 330 324 316 299 301 296 293 299 300 296 299 301 300 301 302 300 301 303 303 299 292 288 286 285 283 279 275 274 278
211 236 246 251 260 268 283 293 298 304 310 316 324 324 317 310 319 308 292 293 296 295 298 296 293 296 297 297 295 292 292 295 297 298 296 289 284 278 275 273 273 271 272
228 238 244 254 261 274 287 295 298 305 308 312 315 314 311 309 306 297 305 303 298 297 298 297 298 297 297 294 293 290 289 290 292 294 294 288 281 276 274 274 272 271 272
223 235 249 265 282 295 296 297 302 306 307 310 311 311 312 312 308 304 302 307 310 310 308 308 308 306 301 294 292 289 285 283 280 280 285 284 281 277 274 273 272 269 268
230 243 256 275 291 302 311 307 302 303 305 310 310 309 310 311 307 307 305 308 307 309 313 312 314 315 315 313 305 296 287 283 281 281 277 278 278 276 275 274 273 272 270
232 243 264 275 291 299 297 299 306 307 308 312 314 312 311 312 307 305 305 307 306 305 305 307 312 313 310 307 302 298 291 287 283 277 274 270 266 268 273 275 274 269 268
244 259 271 286 289 289 303 314 311 311 319 316 314 311 311 310 305 304 303 302 301 296 300 305 308 309 310 308 304 299 294 289 285 283 278 273 269 267 267 268 271 273 273
255 260 271 272 275 303 312 317 323 321 319 317 315 311 310 310 309 306 304 301 297 294 288 294 300 302 303 303 305 304 301 295 288 283 280 275 272 270 267 266 268 271 271
245 260 253 260 286 314 322 321 321 320 318 316 315 314 312 309 308 307 306 305 303 300 295 299 302 303 300 301 301 301 301 300 297 292 283 278 273 269 269 270 269 268 268
238 217 237 268 324 323 320 318 316 315 315 313 311 309 308 308 308 308 307 306 305 303 300 302 306 307 307 308 305 304 304 304 305 306 300 295 287 279 272 267 267 267 265
193 212 235 306 314 314 313 313 313 313 311 310 310 309 311 310 310 309 308 307 305 303 301 301 303 306 307 309 308 305 304 301 300 302 302 299 297 288 285 279 273 269 266
194 211 276 304 310 314 315 313 312 312 311 310 310 309 310 311 310 311 309 308 308 306 304 302 302 305 307 310 308 307 305 302 300 298 295 296 298 295 288 283 278 276 274
202 259 297 308 314 315 315 315 314 313 313 311 310 310 311 310 309 307 306 308 309 307 306 304 303 304 308 312 309 308 302 303 302 305 304 299 297 294 292 287 279 277 274
252 288 303 311 315 317 316 315 315 315 315 315 315 313 310 307 306 304 304 304 304 306 304 304 303 301 299 299 299 301 298 300 300 304 303 297 298 294 292 295 294 290 285
283 303 310 314 317 318 318 318 318 317 317 316 314 312 310 309 307 305 303 301 301 301 301 303 303 304 305 306 307 301 300 299 297 300 299 299 297 289 293 296 295 295 290
301 310 316 318 320 321 319 319 319 319 317 317 315 313 312 312 312 310 313 314 311 309 309 308 303 301 301 303 299 298 299 296 297 297 301 296 302 298 299 297 294 289 288
312 317 319 321 322 323 323 323 322 320 319 318 316 316 317 318 321 321 313 310 308 306 309 309 302 300 300 298 293 299 298 302 301 297 301 296 303 300 298 297 297 295 293
316 318 322 325 326 325 323 322 321 319 319 320 322 325 327 322 318 313 311 311 310 311 313 312 308 303 301 300 304 302 298 295 297 297 309 295 302 307 303 296 292 292 298
Height
1531 1531 1531 1532 1531 1531 1531 1531 1531 1531 1531 1530 1530 1530 1529 1528 1528 1527 1527 1526 1528 1528 1528 1528 1527 1527 1526 1525 1524 1523 1522 1522 1521 1520 1519 1519 1518 1517 1516 1516 1514 1514 1514
1531 1531 1531 1531 1531 1531 1531 1531 1530 1530 1530 1530 1529 1529 1528 1527 1527 1527 1527 1527 1527 1527 1527 1526 1526 1525 1525 1524 1522 1522 1521 1520 1519 1518 1517 1516 1516 1515 1514 1514 1513 1512 1512
1530 1531 1530 1531 1530 1530 1530 1530 1530 1530 1530 1529 1528 1528 1527 1527 1527 1527 1527 1527 1526 1526 1525 1525 1525 1524 1523 1522 1521 1520 1519 1518 1517 1516 1515 1514 1514 1513 1512 1511 1511 1510 1509
1529 1530 1530 1531 1530 1530 1530 1530 1530 1530 1529 1529 1528 1527 1527 1526 1526 1526 1526 1525 1525 1525 1524 1524 1523 1523 1522 1521 1520 1518 1517 1516 1516 1515 1514 1513 1512 1511 1510 1509 1508 1507 1507
1529 1530 1530 1531 1530 1530 1530 1530 1530 1529 1529 1529 1528 1527 1526 1525 1525 1525 1525 1524 1524 1523 1522 1522 1521 1521 1520 1519 1519 1518 1516 1514 1513 1513 1512 1511 1510 1509 1508 1507 1507 1506 1505
1528 1529 1530 1530 1530 1529 1529 1529 1529 1529 1529 1528 1527 1526 1525 1524 1524 1523 1523 1522 1522 1522 1521 1520 1520 1519 1518 1517 1516 1515 1514 1513 1511 1510 1509 1509 1508 1507 1505 1504 1504 1503 1502
1528 1528 1529 1530 1529 1529 1529 1529 1528 1528 1528 1527 1526 1525 1523 1522 1522 1522 1521 1521 1520 1520 1520 1519 1518 1517 1516 1515 1514 1512 1511 1510 1509 1508 1506 1505 1505 1504 1503 1502 1500 1499 1498
1528 1528 1529 1529 1529 1528 1528 1528 1527 1528 1527 1526 1525 1524 1522 1523 1521 1521 1520 1519 1519 1519 1518 1517 1516 1514 1513 1512 1511 1510 1508 1507 1505 1504 1503 1502 1500 1500 1499 1499 1498 1497 1495
1527 1528 1528 1528 1528 1527 1527 1527 1526 1527 1527 1525 1525 1525 1523 1522 1521 1519 1519 1518 1517 1517 1516 1515 1513 1512 1510 1509 1508 1506 1505 1503 1501 1500 1499 1498 1496 1495 1495 1494 1494 1494 1493
1526 1527 1527 1527 1526 1526 1526 1526 1526 1526 1526 1525 1525 1524 1523 1522 1521 1518 1517 1516 1515 1514 1513 1512 1510 1508 1506 1505 1503 1501 1500 1499 1497 1495 1494 1493 1492 1491 1491 1490 1490 1490 1489
1525 1526 1526 1526 1525 1525 1526 1525 1525 1525 1525 1525 1524 1523 1522 1520 1519 1517 1512 1512 1512 1511 1510 1508 1506 1504 1502 1500 1498 1496 1494 1493 1491 1490 1489 1488 1488 1487 1487 1487 1486 1486 1485
1524 1525 1525 1525 1525 1525 1525 1524 1524 1524 1524 1523 1522 1521 1520 1519 1517 1516 1512 1508 1505 1502 1503 1502 1501 1499 1497 1495 1492 1490 1488 1486 1485 1484 1483 1483 1482 1482 1482 1482 1481 1481 1480
1523 1524 1524 1525 1525 1524 1524 1524 1523 1523 1522 1521 1521 1519 1518 1517 1514 1513 1510 1507 1502 1497 1494 1494 1495 1494 1492 1491 1489 1486 1483 1481 1479 1477 1476 1476 1476 1476 1475 1475 1475 1474 1474
1523 1523 1524 1524 1524 1523 1523 1523 1522 1521 1521 1520 1519 1518 1516 1515 1512 1510 1507 1504 1497 1494 1491 1488 1487 1487 1487 1485 1483 1480 1478 1475 1472 1470 1469 1467 1467 1467 1466 1465 1465 1465 1465
1522 1522 1523 1523 1522 1522 1522 1522 1521 1520 1520 1519 1517 1516 1514 1512 1510 1508 1505 1502 1498 1490 1486 1483 1481 1480 1478 1476 1474 1472 1469 1467 1464 1461 1460 1459 1458 1457 1456 1456 1456 1455 1454
1521 1521 1521 1522 1521 1521 1521 1520 1520 1519 1518 1517 1515 1513 1511 1509 1506 1503 1500 1497 1494 1488 1480 1478 1478 1474 1471 1467 1465 1462 1460 1458 1456 1453 1450 1448 1446 1446 1445 1445 1444 1445 1444
1520 1520 1520 1521 1520 1520 1520 1519 1518 1517 1516 1514 1512 1510 1507 1504 1502 1498 1495 1492 1488 1484 1473 1467 1466 1466 1464 1460 1458 1454 1451 1448 1445 1444 1441 1438 1437 1436 1435 1434 1433 1432 1433
1518 1519 1520 1520 1519 1519 1518 1518 1516 1515 1513 1511 1509 1506 1503 1499 1497 1493 1489 1486 1481 1478 1471 1461 1459 1457 1455 1453 1450 1446 1443 1440 1436 1435 1432 1430 1427 1425 1424 1423 1422 1422 1422
1518 1519 1519 1519 1518 1518 1517 1515 1514 1512 1510 1507 1504 1501 1498 1494 1490 1487 1483 1479 1475 1471 1466 1458 1450 1449 1446 1445 1440 1437 1435 1431 1429 1426 1423 1422 1420 1417 1414 1413 1412 1411 1411
1518 1519 1518 1518 1517 1516 1514 1512 1510 1508 1506 1503 1499 1496 1492 1488 1484 1480 1476 1473 1468 1463 1459 1453 1446 1441 1438 1435 1432 1427 1423 1421 1417 1417 1414 1412 1410 1407 1406 1403 1402 1401 1400
1517 1517 1517 1516 1515 1513 1512 1509 1507 1504 1501 1498 1495 1492 1488 1484 1480 1476 1470 1465 1461 1456 1451 1445 1440 1435 1431 1429 1427 1423 1418 1413 1410 1409 1406 1404 1401 1398 1395 1393 1392 1392 1390
1516 1516 1515 1514 1513 1511 1508 1505 1502 1499 1497 1493 1489 1486 1482 1478 1474 1470 1465 1460 1456 1449 1444 1440 1435 1431 1428 1426 1421 1417 1413 1409 1401 1404 1400 1395 1394 1390 1387 1383 1381 1380 1379
1515 1514 1513 1512 1510 1507 1504 1501 1498 1494 1491 1487 1483 1479 1474 1471 1466 1461 1456 1452 1448 1444 1441 1437 1430 1426 1420 1418 1414 1410 1406 1402 1397 1393 1392 1385 1384 1380 1378 1376 1373 1370 1368
1512 1511 1509 1508 1507 1503 1500 1497 1493 1489 1486 1482 1477 1473 1467 1462 1458 1452 1446 1442 1438 1435 1432 1428 1424 1419 1416 1412 1409 1404 1398 1393 1389 1385 1385 1378 1374 1370 1369 1366 1363 1361 1358
1510 1508 1506 1504 1502 1500 1496 1492 1488 1484 1479 1475 1471 1466 1460 1454 1450 1446 1441 1436 1430 1427 1425 1421 1417 1412 1408 1405 1402 1398 1393 1387 1380 1375 1375 1373 1367 1363 1360 1355 1352 1350 1349
1507 1505 1504 1501 1498 1495 1492 1487 1483 1478 1473 1467 1462 1457 1453 1450 1446 1442 1437 1431 1424 1419 1415 1410 1407 1404 1401 1396 1394 1391 1387 1381 1377 1368 1368 1368 1361 1360 1350 1345 1342 1341 1340